Tracking 17996 objects as of 28-February-2017
HD Live streaming from Space Station
objects crossing your sky now

BEIDOU 1B

Track BEIDOU 1B now!
BEIDOU 1B is classified as:


NORAD ID: 26643
Int'l Code: 2000-082A
Perigee: 35,739.5 km
Apogee: 36,425.8 km
Inclination: 7.8 °
Period: 1,450.9 minutes
Semi major axis: 42453 km
RCS: 0.1238 m2 (medium)
Launch date: December 20, 2000
Source: People's Republic of China (PRC)
Launch site: Xichang Space Center, China (XSC)

Space-bsaed navigation and positioning system to improve accuracy of weapons and situational awareness of military forces.
Your satellite tracking list
Your tracking list is empty





NASA's NSSDC Master Catalog

Two Line Element Set (TLE):
1 26643U 00082A   17057.08084347  .00000070  00000-0  00000+0 0  9991
2 26643   7.8029  49.2172 0080839   3.7808 356.4250  0.99250593 59122
Source of the keplerian elements: AFSPC